This is the latest recevied weather packets stored in our database for station/object VA2RBQ-7. If no packets are shown the sender has not sent any weather packets the latest 10 day(s).
| Time | Temp. | Humidity | Pressure | Rain* | Wind** | Luminosity | Snow |
|---|---|---|---|---|---|---|---|
| 1788138780 | 5.56° C | 60% | 1015 hPa | 0 mm | - | - | - |
| 1788138489 | 5.56° C | 60% | 1015 hPa | 0 mm | - | - | - |
| 1788138176 | -17.78° C | 60% | 1015.1 hPa | 0 mm | - | - | - |
| 1788137868 | 5° C | 60% | 1015 hPa | 0.25 mm | - | - | - |
| 1788137566 | 5° C | 60% | 1015 hPa | 0.25 mm | - | - | - |
| 1788137264 | 5.56° C | 60% | 1014.8 hPa | 0.25 mm | - | - | - |
| 1788136960 | 5.56° C | 60% | 1014.9 hPa | 0.25 mm | - | - | - |
| 1788136658 | 5.56° C | 60% | 1014.8 hPa | 0.25 mm | - | - | - |
| 1788136355 | 5.56° C | 60% | 1014.7 hPa | 0.25 mm | - | - | - |
| 1788136060 | 5.56° C | 60% | 1014.6 hPa | 0.25 mm | - | - | - |
| 1788135751 | 5° C | 60% | 1014.5 hPa | 0.25 mm | - | - | - |
| 1788135447 | 5° C | 60% | 1014.5 hPa | 0.25 mm | - | - | - |
| 1788135145 | 5° C | 60% | 1014.5 hPa | 0.25 mm | - | - | - |
| 1788134842 | 5° C | 60% | 1014.5 hPa | 0.25 mm | - | - | - |
| 1788134540 | 5° C | 60% | 1014.4 hPa | 0.25 mm | - | - | - |
| 1788134238 | 5° C | 60% | 1014.3 hPa | 0.25 mm | - | - | - |
| 1788133934 | 5° C | 60% | 1014.3 hPa | 0.25 mm | - | - | - |
| 1788133632 | 5° C | 60% | 1014.4 hPa | 0.25 mm | - | - | - |
| 1788133330 | 5° C | 60% | 1014.4 hPa | 0.25 mm | - | - | - |
| 1788133027 | 5° C | 61% | 1014.1 hPa | 0.25 mm | - | - | - |
| 1788132725 | 5.56° C | 61% | 1014.1 hPa | 0.25 mm | - | - | - |
| 1788132421 | 5.56° C | 61% | 1014.1 hPa | 0.25 mm | - | - | - |
| 1788132119 | 5.56° C | 61% | 1014.2 hPa | 0.25 mm | - | - | - |
| 1788131816 | 6.11° C | 61% | 1014.1 hPa | 0.25 mm | - | - | - |
| 1788131514 | 6.11° C | 61% | 1013.9 hPa | 0.25 mm | - | - | - |
* Rain since midnight (hover to see other rain measurements)
** Current wind speed in m/s (hover to see current wind gust speed)